Weather History for Farmingdale, NY

Change the Weather History Date:

Friday, August 16, 2013

  Actual Average Record
Temperature  
Mean Temperature 67 °F -  
Max Temperature 78 °F 79 °F 91 °F (1997)
Min Temperature 57 °F 65 °F 57 °F (2013)
Cooling Degree Days 2    
Growing Degree Days 17 (Base 50)    
Moisture  
Dew Point 54 °F    
Average Humidity 63    
Maximum Humidity 90    
Minimum Humidity 40    
Precipitation  
Precipitation 0.00 in - - ()
Sea Level Pressure  
Sea Level Pressure 30.17 in    
Wind  
Wind Speed 2 mph (South)    
Max Wind Speed 12 mph    
Max Gust Speed -    
Visibility 10 miles    
Events      
Averages and records for this station are not official NWS values.
T = Trace of Precipitation, MM = Missing Value Source: NWS Daily Summary

Daily Weather History Graph

Daily Weather History Graph

Search for Another Location

Airport:

Trip Planner

Search our weather history database for the weather conditions in past years. The results will help you decide how hot, cold, wet, or windy it might be!

Date:

Astronomy

Aug. 16, 2013 Rise Set
Actual Time 6:05 AM EDT 7:49 PM EDT
Civil Twilight 5:35 AM EDT 8:19 PM EDT
Nautical Twilight 5:00 AM EDT 8:54 PM EDT
Astronomical Twilight 4:22 AM EDT 9:32 PM EDT
Moon 4:06 PM EDT (8/16) 1:04 AM EDT (8/16)
Length of Visible Light 14h 43m
Length of Day
13h 44m
Waxing Gibbous, 74% of the Moon is Illuminated
Aug 16
Waxing Gibbous
Aug 20
Full
Aug 28
Last Quarter
Sep 5
New
Sep 12
First Quarter

Hourly Weather History & Observations

Time (EDT) Temp. Dew Point Humidity Pressure Visibility Wind Dir Wind Speed Gust Speed Precip Events Conditions
1:53 AM 62.1 °F 55.9 °F 80% 30.14 in 10.0 mi Calm Calm - N/A   Clear
2:53 AM 62.1 °F 57.0 °F 84% 30.14 in 10.0 mi Calm Calm - N/A   Clear
3:53 AM 61.0 °F 55.9 °F 83% 30.14 in 10.0 mi Calm Calm - N/A   Clear
4:53 AM 57.9 °F 55.0 °F 90% 30.14 in 10.0 mi Calm Calm - N/A   Clear
5:53 AM 57.9 °F 54.0 °F 87% 30.14 in 10.0 mi Calm Calm - N/A   Clear
6:53 AM 59.0 °F 55.9 °F 90% 30.15 in 10.0 mi Calm Calm - N/A   Clear
7:53 AM 64.9 °F 57.0 °F 75% 30.16 in 10.0 mi Calm Calm - N/A   Clear
8:53 AM 69.1 °F 59.0 °F 70% 30.16 in 10.0 mi Calm Calm - N/A   Clear
9:53 AM 73.9 °F 53.1 °F 48% 30.17 in 10.0 mi SW 3.5 mph - N/A   Clear
10:53 AM 75.9 °F 50.0 °F 40% 30.17 in 10.0 mi Calm Calm - N/A   Partly Cloudy
11:53 AM 73.9 °F 52.0 °F 46% 30.17 in 10.0 mi SE 4.6 mph - N/A   Mostly Cloudy
12:53 PM 73.9 °F 52.0 °F 46% 30.17 in 10.0 mi South 6.9 mph - N/A   Mostly Cloudy
1:53 PM 75.0 °F 50.0 °F 41% 30.17 in 10.0 mi SSW 9.2 mph - N/A   Overcast
2:53 PM 77.0 °F 51.1 °F 40% 30.16 in 10.0 mi South 9.2 mph - N/A   Mostly Cloudy
3:53 PM 75.9 °F 50.0 °F 40% 30.16 in 10.0 mi South 11.5 mph - N/A   Partly Cloudy
4:53 PM 75.0 °F 51.1 °F 43% 30.16 in 10.0 mi South 10.4 mph - N/A   Clear
5:53 PM 73.9 °F 52.0 °F 46% 30.17 in 10.0 mi South 8.1 mph - N/A   Clear
6:53 PM 72.0 °F 54.0 °F 53% 30.17 in 10.0 mi South 9.2 mph - N/A   Clear
7:53 PM 70.0 °F 55.0 °F 59% 30.19 in 10.0 mi SSW 6.9 mph - N/A   Clear
8:53 PM 69.1 °F 55.9 °F 63% 30.19 in 10.0 mi SSW 5.8 mph - N/A   Clear
9:53 PM 69.1 °F 57.9 °F 68% 30.21 in 10.0 mi South 3.5 mph - N/A   Clear
10:53 PM 68.0 °F 59.0 °F 73% 30.20 in 10.0 mi Calm Calm - N/A   Clear
11:53 PM 64.0 °F 57.9 °F 80% 30.22 in 10.0 mi Calm Calm - N/A   Clear